Time,TemperatureF,DewpointF,PressureIn,WindDirection,WindDirectionDegrees,WindSpeedMPH,WindSpeedGustMPH,Humidity,HourlyPrecipIn,Conditions,Clouds,dailyrainin,SolarRadiationWatts/m^2,SoftwareType,DateUTC
2013-06-22 00:11:00,65.9,65.0,30.21,South,171,0.0,0.0,95,0.00,,,0.00,0,weatherlink.com 1.10,2013-06-22 04:11:00,
2013-06-22 00:26:00,65.8,64.0,30.21,South,171,0.0,0.0,95,0.00,,,0.00,0,weatherlink.com 1.10,2013-06-22 04:26:00,
2013-06-22 00:41:00,65.7,64.0,30.21,South,171,0.0,0.0,95,0.00,,,0.00,0,weatherlink.com 1.10,2013-06-22 04:41:00,
2013-06-22 00:56:00,65.7,64.0,30.21,South,171,0.0,0.0,95,0.00,,,0.00,0,weatherlink.com 1.10,2013-06-22 04:56:00,
2013-06-22 01:11:00,65.4,64.0,30.21,South,171,0.0,0.0,95,0.00,,,0.00,0,weatherlink.com 1.10,2013-06-22 05:11:00,
2013-06-22 01:26:00,65.0,63.0,30.22,South,171,0.0,0.0,94,0.00,,,0.00,0,weatherlink.com 1.10,2013-06-22 05:26:00,
2013-06-22 01:41:00,64.4,62.0,30.22,South,171,0.0,0.0,93,0.00,,,0.00,0,weatherlink.com 1.10,2013-06-22 05:41:00,
2013-06-22 01:56:00,63.9,61.0,30.22,South,171,0.0,0.0,91,0.00,,,0.00,0,weatherlink.com 1.10,2013-06-22 05:56:00,
2013-06-22 02:11:00,63.8,61.0,30.22,South,171,0.0,0.0,90,0.00,,,0.00,0,weatherlink.com 1.10,2013-06-22 06:11:00,
2013-06-22 02:26:00,63.4,60.0,30.21,South,171,0.0,1.0,89,0.00,,,0.00,0,weatherlink.com 1.10,2013-06-22 06:26:00,
2013-06-22 02:41:00,63.1,60.0,30.21,South,171,0.0,0.0,89,0.00,,,0.00,0,weatherlink.com 1.10,2013-06-22 06:41:00,
2013-06-22 02:56:00,62.6,59.0,30.22,South,171,0.0,0.0,89,0.00,,,0.00,0,weatherlink.com 1.10,2013-06-22 06:56:00,
2013-06-22 03:11:00,62.1,59.0,30.21,South,171,0.0,0.0,90,0.00,,,0.00,0,weatherlink.com 1.10,2013-06-22 07:11:00,
2013-06-22 03:26:00,62.1,60.0,30.21,South,171,0.0,0.0,91,0.00,,,0.00,0,weatherlink.com 1.10,2013-06-22 07:26:00,
2013-06-22 03:41:00,62.0,59.0,30.21,South,171,0.0,0.0,91,0.00,,,0.00,0,weatherlink.com 1.10,2013-06-22 07:41:00,
2013-06-22 04:11:00,61.9,59.0,30.21,South,171,0.0,0.0,91,0.00,,,0.00,0,weatherlink.com 1.10,2013-06-22 08:11:00,
2013-06-22 04:27:00,61.7,59.0,30.22,South,171,0.0,0.0,91,0.00,,,0.00,0,weatherlink.com 1.10,2013-06-22 08:27:00,
2013-06-22 04:42:00,61.5,59.0,30.22,South,171,0.0,0.0,91,0.00,,,0.00,0,weatherlink.com 1.10,2013-06-22 08:42:00,
2013-06-22 04:57:00,61.3,59.0,30.22,South,171,0.0,0.0,91,0.00,,,0.00,0,weatherlink.com 1.10,2013-06-22 08:57:00,
2013-06-22 05:12:00,61.1,59.0,30.21,South,171,0.0,0.0,91,0.00,,,0.00,0,weatherlink.com 1.10,2013-06-22 09:12:00,
2013-06-22 05:27:00,60.9,58.0,30.20,South,171,0.0,0.0,91,0.00,,,0.00,0,weatherlink.com 1.10,2013-06-22 09:27:00,
2013-06-22 05:42:00,60.7,58.0,30.20,South,171,0.0,0.0,91,0.00,,,0.00,5,weatherlink.com 1.10,2013-06-22 09:42:00,
2013-06-22 05:57:00,60.6,58.0,30.21,South,171,0.0,0.0,91,0.00,,,0.00,11,weatherlink.com 1.10,2013-06-22 09:57:00,
2013-06-22 06:12:00,60.5,58.0,30.21,South,171,0.0,0.0,91,0.00,,,0.00,16,weatherlink.com 1.10,2013-06-22 10:12:00,
2013-06-22 06:27:00,60.5,58.0,30.21,South,171,0.0,0.0,91,0.00,,,0.00,23,weatherlink.com 1.10,2013-06-22 10:27:00,
2013-06-22 06:42:00,60.7,58.0,30.21,South,171,0.0,0.0,92,0.00,,,0.00,35,weatherlink.com 1.10,2013-06-22 10:42:00,
2013-06-22 06:57:00,60.9,59.0,30.21,South,171,0.0,0.0,92,0.00,,,0.00,35,weatherlink.com 1.10,2013-06-22 10:57:00,
2013-06-22 07:12:00,61.2,59.0,30.21,South,171,0.0,0.0,92,0.00,,,0.00,46,weatherlink.com 1.10,2013-06-22 11:12:00,
2013-06-22 07:27:00,61.7,59.0,30.20,WSW,247,0.0,2.0,92,0.00,,,0.00,49,weatherlink.com 1.10,2013-06-22 11:27:00,
2013-06-22 07:42:00,62.3,60.0,30.20,North,360,2.0,3.0,92,0.00,,,0.00,54,weatherlink.com 1.10,2013-06-22 11:42:00,
2013-06-22 07:57:00,63.1,60.0,30.20,SSE,157,0.0,4.0,90,0.00,,,0.00,58,weatherlink.com 1.10,2013-06-22 11:57:00,
2013-06-22 08:11:00,63.9,61.0,30.20,NNW,327,0.0,3.0,89,0.00,,,0.00,69,weatherlink.com 1.10,2013-06-22 12:11:00,
2013-06-22 08:27:00,65.0,61.0,30.20,NW,315,1.0,2.0,87,0.00,,,0.00,83,weatherlink.com 1.10,2013-06-22 12:27:00,
2013-06-22 08:42:00,66.8,61.0,30.21,NNW,344,0.0,3.0,82,0.00,,,0.00,90,weatherlink.com 1.10,2013-06-22 12:42:00,
2013-06-22 08:57:00,67.9,62.0,30.21,WNW,290,0.0,2.0,81,0.00,,,0.00,102,weatherlink.com 1.10,2013-06-22 12:57:00,
2013-06-22 09:12:00,68.6,62.0,30.22,SSE,157,0.0,4.0,78,0.00,,,0.00,97,weatherlink.com 1.10,2013-06-22 13:12:00,
2013-06-22 09:27:00,69.5,62.0,30.22,North,360,2.0,5.0,76,0.00,,,0.00,95,weatherlink.com 1.10,2013-06-22 13:27:00,
2013-06-22 09:42:00,70.6,62.0,30.22,SW,236,0.0,3.0,75,0.00,,,0.00,95,weatherlink.com 1.10,2013-06-22 13:42:00,
2013-06-22 09:57:00,71.6,63.0,30.22,SSW,192,0.0,3.0,74,0.00,,,0.00,102,weatherlink.com 1.10,2013-06-22 13:57:00,
2013-06-22 10:12:00,71.8,62.0,30.22,SSW,206,0.0,3.0,71,0.00,,,0.00,97,weatherlink.com 1.10,2013-06-22 14:12:00,
2013-06-22 10:26:00,72.7,63.0,30.22,WNW,300,0.0,3.0,71,0.00,,,0.00,118,weatherlink.com 1.10,2013-06-22 14:26:00,
2013-06-22 10:42:00,73.8,63.0,30.22,SW,214,0.0,3.0,68,0.00,,,0.00,151,weatherlink.com 1.10,2013-06-22 14:42:00,
2013-06-22 10:57:00,74.6,63.0,30.22,NNW,342,2.0,4.0,67,0.00,,,0.00,227,weatherlink.com 1.10,2013-06-22 14:57:00,
2013-06-22 11:12:00,74.6,63.0,30.21,NNE,12,1.0,4.0,67,0.00,,,0.00,272,weatherlink.com 1.10,2013-06-22 15:12:00,
2013-06-22 11:28:00,76.6,65.0,30.20,NNE,29,0.0,3.0,67,0.00,,,0.00,717,weatherlink.com 1.10,2013-06-22 15:28:00,
2013-06-22 11:42:00,77.3,64.0,30.20,SSE,153,1.0,3.0,64,0.00,,,0.00,580,weatherlink.com 1.10,2013-06-22 15:42:00,
2013-06-22 11:58:00,77.4,63.0,30.20,SE,134,2.0,3.0,62,0.00,,,0.00,726,weatherlink.com 1.10,2013-06-22 15:58:00,
2013-06-22 12:13:00,78.4,63.0,30.19,SSE,148,2.0,6.0,60,0.00,,,0.00,821,weatherlink.com 1.10,2013-06-22 16:13:00,
2013-06-22 12:28:00,79.6,63.0,30.20,North,355,2.0,5.0,58,0.00,,,0.00,795,weatherlink.com 1.10,2013-06-22 16:28:00,
2013-06-22 12:43:00,80.1,64.0,30.19,WNW,299,3.0,6.0,58,0.00,,,0.00,863,weatherlink.com 1.10,2013-06-22 16:43:00,
2013-06-22 12:58:00,80.7,64.0,30.19,NW,325,4.0,7.0,58,0.00,,,0.00,925,weatherlink.com 1.10,2013-06-22 16:58:00,
2013-06-22 13:13:00,80.3,64.0,30.18,West,281,1.0,4.0,57,0.00,,,0.00,867,weatherlink.com 1.10,2013-06-22 17:13:00,
2013-06-22 13:28:00,80.8,63.0,30.18,NNE,20,0.0,5.0,54,0.00,,,0.00,276,weatherlink.com 1.10,2013-06-22 17:28:00,
2013-06-22 13:43:00,79.7,63.0,30.18,NNW,333,1.0,5.0,57,0.00,,,0.00,904,weatherlink.com 1.10,2013-06-22 17:43:00,
2013-06-22 13:58:00,81.2,63.0,30.17,NNW,344,1.0,6.0,54,0.00,,,0.00,265,weatherlink.com 1.10,2013-06-22 17:58:00,
2013-06-22 14:13:00,80.1,66.0,30.16,NNW,330,1.0,4.0,63,0.00,,,0.00,246,weatherlink.com 1.10,2013-06-22 18:13:00,
2013-06-22 14:28:00,82.6,67.0,30.15,NNW,346,0.0,3.0,60,0.00,,,0.00,754,weatherlink.com 1.10,2013-06-22 18:28:00,
2013-06-22 14:43:00,83.1,66.0,30.14,WSW,255,1.0,3.0,56,0.00,,,0.00,775,weatherlink.com 1.10,2013-06-22 18:43:00,
2013-06-22 14:58:00,83.6,67.0,30.13,WNW,291,0.0,5.0,57,0.00,,,0.00,780,weatherlink.com 1.10,2013-06-22 18:58:00,
2013-06-22 15:13:00,84.3,65.0,30.13,NE,55,0.0,6.0,53,0.00,,,0.00,773,weatherlink.com 1.10,2013-06-22 19:13:00,
2013-06-22 15:28:00,84.0,66.0,30.12,West,262,1.0,4.0,55,0.00,,,0.00,707,weatherlink.com 1.10,2013-06-22 19:28:00,
2013-06-22 15:43:00,84.3,65.0,30.12,North,360,0.0,4.0,53,0.00,,,0.00,636,weatherlink.com 1.10,2013-06-22 19:43:00,
2013-06-22 15:58:00,84.4,65.0,30.12,NNW,329,1.0,4.0,53,0.00,,,0.00,613,weatherlink.com 1.10,2013-06-22 19:58:00,
2013-06-22 16:13:00,84.3,67.0,30.12,WNW,288,0.0,3.0,56,0.00,,,0.00,557,weatherlink.com 1.10,2013-06-22 20:13:00,
2013-06-22 16:27:00,83.9,66.0,30.11,SSW,196,3.0,6.0,55,0.00,,,0.00,540,weatherlink.com 1.10,2013-06-22 20:27:00,
2013-06-22 16:43:00,83.7,66.0,30.11,WNW,299,1.0,5.0,55,0.00,,,0.00,413,weatherlink.com 1.10,2013-06-22 20:43:00,
2013-06-22 16:58:00,83.0,66.0,30.11,South,171,1.0,3.0,56,0.00,,,0.00,374,weatherlink.com 1.10,2013-06-22 20:58:00,
2013-06-22 17:13:00,82.8,66.0,30.10,ESE,122,0.0,3.0,58,0.00,,,0.00,418,weatherlink.com 1.10,2013-06-22 21:13:00,
2013-06-22 17:28:00,82.8,66.0,30.10,NNW,334,0.0,4.0,58,0.00,,,0.00,353,weatherlink.com 1.10,2013-06-22 21:28:00,
2013-06-22 17:43:00,82.6,66.0,30.10,WSW,254,0.0,4.0,57,0.00,,,0.00,339,weatherlink.com 1.10,2013-06-22 21:43:00,
2013-06-22 17:58:00,82.1,66.0,30.09,SE,129,1.0,6.0,59,0.00,,,0.00,162,weatherlink.com 1.10,2013-06-22 21:58:00,
2013-06-22 18:13:00,80.4,66.0,30.09,SSE,160,0.0,5.0,61,0.00,,,0.00,125,weatherlink.com 1.10,2013-06-22 22:13:00,
2013-06-22 18:28:00,80.2,66.0,30.08,NNW,338,0.0,2.0,63,0.00,,,0.00,79,weatherlink.com 1.10,2013-06-22 22:28:00,
2013-06-22 18:43:00,79.3,66.0,30.08,SSE,168,0.0,2.0,64,0.00,,,0.00,67,weatherlink.com 1.10,2013-06-22 22:43:00,
2013-06-22 18:58:00,79.1,67.0,30.08,SSE,167,0.0,1.0,66,0.00,,,0.00,81,weatherlink.com 1.10,2013-06-22 22:58:00,
2013-06-22 19:14:00,79.3,67.0,30.08,NW,317,0.0,2.0,66,0.00,,,0.00,97,weatherlink.com 1.10,2013-06-22 23:14:00,
2013-06-22 19:29:00,79.0,67.0,30.08,West,272,2.0,3.0,67,0.00,,,0.00,104,weatherlink.com 1.10,2013-06-22 23:29:00,
2013-06-22 19:44:00,78.8,67.0,30.08,NNW,329,0.0,3.0,67,0.00,,,0.00,47,weatherlink.com 1.10,2013-06-22 23:44:00,
2013-06-22 19:59:00,78.1,67.0,30.08,WNW,292,0.0,3.0,69,0.00,,,0.00,33,weatherlink.com 1.10,2013-06-22 23:59:00,
2013-06-22 20:14:00,77.7,67.0,30.09,NW,325,0.0,2.0,69,0.00,,,0.00,14,weatherlink.com 1.10,2013-06-23 00:14:00,
2013-06-22 20:29:00,76.5,66.0,30.09,SE,137,0.0,1.0,71,0.00,,,0.00,0,weatherlink.com 1.10,2013-06-23 00:29:00,
2013-06-22 20:44:00,75.4,66.0,30.09,SE,137,0.0,0.0,73,0.00,,,0.00,0,weatherlink.com 1.10,2013-06-23 00:44:00,
2013-06-22 20:59:00,74.6,66.0,30.09,SE,137,0.0,1.0,75,0.00,,,0.00,0,weatherlink.com 1.10,2013-06-23 00:59:00,
2013-06-22 21:14:00,74.1,66.0,30.10,SE,137,0.0,1.0,76,0.00,,,0.00,0,weatherlink.com 1.10,2013-06-23 01:14:00,
2013-06-22 21:29:00,73.9,66.0,30.11,SE,137,0.0,0.0,77,0.00,,,0.00,0,weatherlink.com 1.10,2013-06-23 01:29:00,
2013-06-22 21:44:00,73.7,66.0,30.12,SE,137,0.0,0.0,77,0.00,,,0.00,0,weatherlink.com 1.10,2013-06-23 01:44:00,
2013-06-22 21:59:00,73.3,66.0,30.12,SE,137,0.0,0.0,78,0.00,,,0.00,0,weatherlink.com 1.10,2013-06-23 01:59:00,
2013-06-22 22:14:00,72.5,66.0,30.12,SE,137,0.0,1.0,80,0.00,,,0.00,0,weatherlink.com 1.10,2013-06-23 02:14:00,
2013-06-22 22:29:00,71.9,66.0,30.12,SE,137,0.0,0.0,81,0.00,,,0.00,0,weatherlink.com 1.10,2013-06-23 02:29:00,
2013-06-22 22:44:00,71.5,66.0,30.13,SSE,167,0.0,3.0,82,0.00,,,0.00,0,weatherlink.com 1.10,2013-06-23 02:44:00,
2013-06-22 22:59:00,71.3,66.0,30.12,SSE,167,0.0,1.0,82,0.00,,,0.00,0,weatherlink.com 1.10,2013-06-23 02:59:00,
2013-06-22 23:14:00,71.1,65.0,30.12,NNW,342,0.0,2.0,81,0.00,,,0.00,0,weatherlink.com 1.10,2013-06-23 03:14:00,
2013-06-22 23:29:00,71.0,65.0,30.12,NNW,342,0.0,2.0,80,0.00,,,0.00,0,weatherlink.com 1.10,2013-06-23 03:29:00,
2013-06-22 23:44:00,71.1,64.0,30.12,NW,311,0.0,2.0,79,0.00,,,0.00,0,weatherlink.com 1.10,2013-06-23 03:44:00,
2013-06-22 23:59:00,71.1,64.0,30.12,NNE,12,2.0,2.0,78,0.00,,,0.00,0,weatherlink.com 1.10,2013-06-23 03:59:00,